Hanford, CA

2:13 PM PDT on April 28, 2017 (GMT -0700)
Hanford Municipal

Weather History for KHJO - December, 2012

Change the Weather History Date:

Thursday, December 27, 2012

  Actual Average Record
Temperature  
Mean Temperature 43 °F 44 °F  
Max Temperature 53 °F 53 °F 69 °F (1999)
Min Temperature 32 °F 35 °F 22 °F (2011)
Degree Days  
Heating Degree Days 22    
Month to date heating degree days 447  
Since 1 July heating degree days 846  
Cooling Degree Days 0    
Month to date cooling degree days 0  
Year to date cooling degree days 2018  
Moisture  
Dew Point 40 °F    
Average Humidity 82    
Maximum Humidity 100    
Minimum Humidity 63    
Precipitation  
Precipitation 0.00 in 0.09 in 0.05 in (2004)
Month to date precipitation 1.50 1.28  
Year to date precipitation 6.56 9.75  
Since 1 July precipitation 1.98  
Snow  
Snow 0.00 in - - ()
Month to date snowfall 0.0  
Since 1 July snowfall 0.0  
Snow Depth 0.00 in    
Sea Level Pressure  
Sea Level Pressure 30.14 in    
Wind  
Wind Speed 4 mph (NW)    
Max Wind Speed 15 mph    
Max Gust Speed 18 mph    
Visibility 6 miles    
Events Fog    
T = Trace of Precipitation, MM = Missing Value Source: NWS Daily Summary

Daily Weather History Graph

Daily Weather History Graph

Search for Another Location

Airport or City:

Trip Planner

Search our weather history database for the weather conditions in past years. The results will help you decide how hot, cold, wet, or windy it might be!

Date:

Astronomy

Dec. 27, 2012 Rise Set
Actual Time 7:08 AM PST 4:51 PM PST
Civil Twilight 6:40 AM PST 5:19 PM PST
Nautical Twilight 6:07 AM PST 5:52 PM PST
Astronomical Twilight 5:36 AM PST 6:23 PM PST
Moon 4:37 PM PST (12/27) 6:24 AM PST (12/27)
Length of Visible Light 10h 39m
Length of Day
9h 42m
Full, 100% of the Moon is Illuminated
Dec 27
Full
Dec 28
Full
Jan 4
Last Quarter
Jan 11
New
Jan 18
First Quarter

Hourly Weather History & Observations

Time (PST) Temp. Windchill Dew Point Humidity Pressure Visibility Wind Dir Wind Speed Gust Speed Precip Events Conditions
12:34 AM 44.6 °F - 42.8 °F 93% 30.08 in 2.0 mi Calm Calm - N/A   Overcast
12:53 AM 44.1 °F - 43.0 °F 96% 30.09 in 4.0 mi Calm Calm - N/A   Overcast
1:53 AM 43.0 °F - 42.1 °F 97% 30.11 in 4.0 mi Calm Calm - N/A   Overcast
2:02 AM 44.6 °F - 42.8 °F 93% 30.09 in 2.5 mi Calm Calm - N/A   Overcast
2:53 AM 45.0 °F - 44.1 °F 97% 30.10 in 4.0 mi Calm Calm - N/A   Overcast
3:28 AM 44.6 °F - 42.8 °F 93% 30.08 in 2.5 mi Calm Calm - N/A   Overcast
3:39 AM 44.6 °F 43.1 °F 42.8 °F 93% 30.09 in 4.0 mi NW 3.5 mph - N/A   Overcast
3:53 AM 45.0 °F - 44.1 °F 97% 30.09 in 6.0 mi Calm Calm - N/A   Overcast
4:16 AM 44.6 °F - 42.8 °F 93% 30.08 in 7.0 mi Calm Calm - N/A   Mostly Cloudy
5:53 AM 45.0 °F - 43.0 °F 93% 30.10 in 9.0 mi Calm Calm - N/A   Overcast
6:53 AM 45.0 °F - 43.0 °F 93% 30.12 in 8.0 mi Calm Calm - N/A   Overcast
7:53 AM 45.0 °F 43.5 °F 43.0 °F 93% 30.13 in 4.0 mi West 3.5 mph - N/A   Overcast
8:53 AM 46.0 °F 43.9 °F 43.0 °F 89% 30.15 in 8.0 mi WNW 4.6 mph - N/A   Overcast
9:53 AM 46.9 °F - 42.1 °F 83% 30.17 in 10.0 mi NNW 9.2 mph - N/A   Overcast
10:53 AM 48.9 °F - 42.1 °F 77% 30.16 in 10.0 mi NW 11.5 mph - N/A   Overcast
11:53 AM 51.1 °F - 42.1 °F 71% 30.13 in 10.0 mi NW 10.4 mph - N/A   Mostly Cloudy
12:53 PM 53.1 °F - 41.0 °F 64% 30.11 in 10.0 mi NW 10.4 mph - N/A   Scattered Clouds
1:53 PM 51.1 °F - 39.0 °F 63% 30.10 in 10.0 mi NW 8.1 mph - N/A   Mostly Cloudy
2:53 PM 51.1 °F - 39.0 °F 63% 30.12 in 10.0 mi NW 10.4 mph - N/A   Overcast
3:53 PM 50.0 °F - 39.9 °F 68% 30.13 in 10.0 mi NW 9.2 mph - N/A   Mostly Cloudy
4:53 PM 46.9 °F - 39.0 °F 74% 30.14 in 10.0 mi NNW 4.6 mph - N/A   Clear
5:53 PM 43.0 °F 41.3 °F 37.0 °F 80% 30.15 in 10.0 mi WNW 3.5 mph - N/A   Clear
6:53 PM 42.1 °F - 37.9 °F 85% 30.17 in 10.0 mi Calm Calm - N/A   Clear
7:53 PM 36.0 °F - 34.0 °F 93% 30.18 in 9.0 mi Calm Calm - N/A   Clear
8:53 PM 41.0 °F 39.0 °F 37.9 °F 89% 30.19 in 9.0 mi WNW 3.5 mph - N/A   Clear
9:53 PM 41.0 °F 38.0 °F 37.9 °F 89% 30.20 in 8.0 mi North 4.6 mph - N/A   Clear
10:53 PM 36.0 °F - 36.0 °F 100% 30.21 in 5.0 mi Calm Calm - N/A   Clear
11:21 PM 33.8 °F - 33.8 °F 100% 30.20 in 1.8 mi Calm Calm - N/A   Clear
11:28 PM 33.8 °F 30.8 °F 32.0 °F 93% 30.21 in 0.2 mi SSW 3.5 mph - N/A Fog Fog
11:38 PM 33.8 °F - 33.8 °F 100% 30.21 in 1.0 mi Calm Calm - N/A   Clear
11:53 PM 34.0 °F - 34.0 °F 100% 30.22 in 0.2 mi Calm Calm - N/A Fog Fog